Time,TemperatureF,DewpointF,PressureIn,WindDirection,WindDirectionDegrees,WindSpeedMPH,WindSpeedGustMPH,Humidity,HourlyPrecipIn,Conditions,Clouds,dailyrainin,SoftwareType,DateUTC
2013-07-14 00:00:00,76.0,73.8,30.06,WNW,297,0.0,0.0,93,0.00,,---,0.00,VWS V14.00,2013-07-14 04:00:00,
2013-07-14 00:01:00,76.0,73.8,30.06,WNW,297,0.0,0.0,93,0.00,,---,0.00,VWS V14.00,2013-07-14 04:01:00,
2013-07-14 00:06:00,76.0,73.8,30.07,WNW,297,0.0,0.0,93,0.00,,---,0.00,VWS V14.00,2013-07-14 04:06:00,
2013-07-14 00:11:00,76.2,74.0,30.07,WNW,296,0.0,0.0,93,0.00,,---,0.00,VWS V14.00,2013-07-14 04:11:00,
2013-07-14 00:16:00,76.3,74.4,30.07,WNW,296,0.0,0.0,94,0.00,,---,0.00,VWS V14.00,2013-07-14 04:16:00,
2013-07-14 00:21:00,76.4,74.6,30.07,WNW,296,0.0,0.0,94,0.00,,---,0.00,VWS V14.00,2013-07-14 04:21:00,
2013-07-14 00:26:00,76.5,74.7,30.07,WNW,296,0.0,0.0,94,0.00,,---,0.00,VWS V14.00,2013-07-14 04:26:00,
2013-07-14 00:31:00,76.5,74.7,30.07,ENE,69,0.0,0.0,94,0.00,,---,0.00,VWS V14.00,2013-07-14 04:31:00,
2013-07-14 00:36:00,76.4,74.6,30.07,SSE,152,0.0,0.0,94,0.00,,---,0.00,VWS V14.00,2013-07-14 04:36:00,
2013-07-14 00:41:00,76.3,74.4,30.07,SSE,152,0.0,0.0,94,0.00,,---,0.00,VWS V14.00,2013-07-14 04:41:00,
2013-07-14 00:46:00,76.2,74.0,30.07,SSW,207,0.0,0.0,93,0.00,,---,0.00,VWS V14.00,2013-07-14 04:46:00,
2013-07-14 00:51:00,76.2,74.0,30.07,SSW,207,0.0,0.0,93,0.00,,---,0.00,VWS V14.00,2013-07-14 04:51:00,
2013-07-14 00:56:00,76.2,74.0,30.07,NNE,15,0.0,0.0,93,0.00,,---,0.00,VWS V14.00,2013-07-14 04:56:00,
2013-07-14 01:01:00,76.1,73.9,30.07,NNE,15,0.0,0.0,93,0.00,,---,0.00,VWS V14.00,2013-07-14 05:01:00,
2013-07-14 01:06:00,76.1,73.6,30.07,NNE,15,0.0,0.0,92,0.00,,---,0.00,VWS V14.00,2013-07-14 05:06:00,
2013-07-14 01:11:00,76.0,73.5,30.07,South,169,0.0,0.0,92,0.00,,---,0.00,VWS V14.00,2013-07-14 05:11:00,
2013-07-14 01:16:00,76.0,73.5,30.07,SSW,209,0.0,0.0,92,0.00,,---,0.00,VWS V14.00,2013-07-14 05:16:00,
2013-07-14 01:21:00,76.0,73.5,30.07,SSW,209,0.0,0.0,92,0.00,,---,0.00,VWS V14.00,2013-07-14 05:21:00,
2013-07-14 01:26:00,75.9,73.4,30.07,SSW,211,0.0,0.0,92,0.00,,---,0.00,VWS V14.00,2013-07-14 05:26:00,
2013-07-14 01:31:00,75.9,73.4,30.07,SSW,211,0.0,0.0,92,0.00,,---,0.00,VWS V14.00,2013-07-14 05:31:00,
2013-07-14 01:36:00,75.9,73.4,30.06,SSW,211,0.0,0.0,92,0.00,,---,0.00,VWS V14.00,2013-07-14 05:36:00,
2013-07-14 01:41:00,75.9,73.4,30.07,SSW,211,0.0,0.0,92,0.00,,---,0.00,VWS V14.00,2013-07-14 05:41:00,
2013-07-14 01:46:00,75.9,73.4,30.06,SSW,211,0.0,0.0,92,0.00,,---,0.00,VWS V14.00,2013-07-14 05:46:00,
2013-07-14 01:51:00,75.9,73.4,30.06,SSW,211,0.0,0.0,92,0.00,,---,0.00,VWS V14.00,2013-07-14 05:51:00,
2013-07-14 01:56:00,75.9,73.4,30.06,SSW,211,0.0,0.0,92,0.00,,---,0.00,VWS V14.00,2013-07-14 05:56:00,
2013-07-14 02:01:00,75.8,73.3,30.06,SSW,211,0.0,0.0,92,0.00,,---,0.00,VWS V14.00,2013-07-14 06:01:00,
2013-07-14 02:06:00,75.8,73.3,30.06,SSW,211,0.0,0.0,92,0.00,,---,0.00,VWS V14.00,2013-07-14 06:06:00,
2013-07-14 02:11:00,75.8,73.3,30.06,SSW,211,0.0,0.0,92,0.00,,---,0.00,VWS V14.00,2013-07-14 06:11:00,
2013-07-14 02:16:00,75.8,73.3,30.06,SSW,211,0.0,0.0,92,0.00,,---,0.00,VWS V14.00,2013-07-14 06:16:00,
2013-07-14 02:21:00,75.8,73.3,30.07,SSW,211,0.0,0.0,92,0.00,,---,0.00,VWS V14.00,2013-07-14 06:21:00,
2013-07-14 02:26:00,75.8,73.3,30.06,SSW,192,0.0,0.0,92,0.00,,---,0.00,VWS V14.00,2013-07-14 06:26:00,
2013-07-14 02:31:00,75.9,73.4,30.06,SSW,192,0.0,1.0,92,0.00,,---,0.00,VWS V14.00,2013-07-14 06:31:00,
2013-07-14 02:36:00,76.0,73.5,30.07,SSW,192,0.0,0.0,92,0.00,,---,0.00,VWS V14.00,2013-07-14 06:36:00,
2013-07-14 02:46:00,76.2,74.0,30.06,SSW,192,0.0,0.0,93,0.00,,---,0.00,VWS V14.00,2013-07-14 06:46:00,
2013-07-14 02:51:00,76.3,74.1,30.06,ESE,113,0.0,0.0,93,0.00,,---,0.00,VWS V14.00,2013-07-14 06:51:00,
2013-07-14 02:56:00,76.4,74.2,30.06,NE,49,4.0,4.0,93,0.00,,---,0.00,VWS V14.00,2013-07-14 06:56:00,
2013-07-14 03:01:00,76.6,74.4,30.06,NE,42,0.0,1.0,93,0.00,,---,0.00,VWS V14.00,2013-07-14 07:01:00,
2013-07-14 03:06:00,76.7,74.5,30.06,ENE,67,0.0,0.0,93,0.00,,---,0.00,VWS V14.00,2013-07-14 07:06:00,
2013-07-14 03:11:00,76.7,74.5,30.06,ENE,61,1.0,2.0,93,0.00,,---,0.00,VWS V14.00,2013-07-14 07:11:00,
2013-07-14 03:15:00,76.8,74.3,30.06,ENE,63,0.0,6.0,92,0.00,,---,0.00,VWS V14.00,2013-07-14 07:15:00,
2013-07-14 03:21:00,76.9,74.4,30.06,NE,56,0.0,2.0,92,0.00,,---,0.00,VWS V14.00,2013-07-14 07:21:00,
2013-07-14 03:25:00,77.0,74.5,30.06,NE,51,0.0,3.0,92,0.00,,---,0.00,VWS V14.00,2013-07-14 07:25:00,
2013-07-14 03:30:00,77.1,74.6,30.06,ENE,77,1.0,1.0,92,0.00,,---,0.00,VWS V14.00,2013-07-14 07:30:00,
2013-07-14 03:35:00,77.1,74.6,30.06,ENE,64,0.0,0.0,92,0.00,,---,0.00,VWS V14.00,2013-07-14 07:35:00,
2013-07-14 03:40:00,77.1,74.6,30.06,ENE,70,0.0,1.0,92,0.00,,---,0.00,VWS V14.00,2013-07-14 07:40:00,
2013-07-14 03:45:00,77.2,74.7,30.06,NE,34,0.0,0.0,92,0.00,,---,0.00,VWS V14.00,2013-07-14 07:45:00,
2013-07-14 03:50:00,77.2,74.7,30.06,NE,44,0.0,0.0,92,0.00,,---,0.00,VWS V14.00,2013-07-14 07:50:00,
2013-07-14 03:55:00,77.1,74.6,30.06,NE,41,0.0,2.0,92,0.00,,---,0.00,VWS V14.00,2013-07-14 07:55:00,
2013-07-14 04:00:00,76.9,74.4,30.06,NE,55,1.0,2.0,92,0.00,,---,0.00,VWS V14.00,2013-07-14 08:00:00,
2013-07-14 04:05:00,76.8,74.0,30.06,ENE,57,0.0,0.0,91,0.00,,---,0.00,VWS V14.00,2013-07-14 08:05:00,
2013-07-14 04:10:00,76.7,73.9,30.06,NE,34,0.0,0.0,91,0.00,,---,0.00,VWS V14.00,2013-07-14 08:10:00,
2013-07-14 04:15:00,76.8,74.3,30.06,ENE,61,0.0,0.0,92,0.00,,---,0.00,VWS V14.00,2013-07-14 08:15:00,
2013-07-14 04:20:00,76.9,74.4,30.06,NE,46,0.0,0.0,92,0.00,,---,0.00,VWS V14.00,2013-07-14 08:20:00,
2013-07-14 04:25:00,76.9,74.4,30.06,NE,42,0.0,0.0,92,0.00,,---,0.00,VWS V14.00,2013-07-14 08:25:00,
2013-07-14 04:30:00,76.9,74.1,30.06,NE,53,0.0,1.0,91,0.00,,---,0.00,VWS V14.00,2013-07-14 08:30:00,
2013-07-14 04:35:00,76.8,74.0,30.06,NE,53,0.0,1.0,91,0.00,,---,0.00,VWS V14.00,2013-07-14 08:35:00,
2013-07-14 04:40:00,76.8,74.0,30.06,East,89,0.0,0.0,91,0.00,,---,0.00,VWS V14.00,2013-07-14 08:40:00,
2013-07-14 04:45:00,77.0,74.2,30.06,ENE,68,0.0,0.0,91,0.00,,---,0.00,VWS V14.00,2013-07-14 08:45:00,
2013-07-14 04:50:00,77.1,74.6,30.06,ENE,62,0.0,1.0,92,0.00,,---,0.00,VWS V14.00,2013-07-14 08:50:00,
2013-07-14 04:55:00,77.1,74.3,30.06,NE,47,0.0,3.0,91,0.00,,---,0.00,VWS V14.00,2013-07-14 08:55:00,
2013-07-14 05:00:00,77.0,74.2,30.06,ENE,65,0.0,0.0,91,0.00,,---,0.00,VWS V14.00,2013-07-14 09:00:00,
2013-07-14 05:05:00,76.9,73.8,30.06,NE,44,0.0,1.0,90,0.00,,---,0.00,VWS V14.00,2013-07-14 09:05:00,
2013-07-14 05:10:00,77.0,73.8,30.07,NE,55,0.0,0.0,90,0.00,,---,0.00,VWS V14.00,2013-07-14 09:10:00,
2013-07-14 05:15:00,76.9,73.8,30.07,NE,36,1.0,1.0,90,0.00,,---,0.00,VWS V14.00,2013-07-14 09:15:00,
2013-07-14 05:20:00,77.0,73.5,30.07,ENE,64,1.0,1.0,89,0.00,,---,0.00,VWS V14.00,2013-07-14 09:20:00,
2013-07-14 05:25:00,77.1,73.6,30.07,ENE,60,0.0,1.0,89,0.00,,---,0.00,VWS V14.00,2013-07-14 09:25:00,
2013-07-14 05:30:00,77.2,74.0,30.07,ENE,60,0.0,0.0,90,0.00,,---,0.00,VWS V14.00,2013-07-14 09:30:00,
2013-07-14 05:35:00,77.4,74.2,30.07,NE,44,0.0,2.0,90,0.00,,---,0.00,VWS V14.00,2013-07-14 09:35:00,
2013-07-14 05:40:00,77.6,74.4,30.07,ENE,78,0.0,1.0,90,0.00,,---,0.00,VWS V14.00,2013-07-14 09:40:00,
2013-07-14 05:45:00,77.8,74.6,30.07,ENE,70,0.0,1.0,90,0.00,,---,0.00,VWS V14.00,2013-07-14 09:45:00,
2013-07-14 05:50:00,77.9,74.7,30.07,ENE,71,0.0,0.0,90,0.00,,---,0.00,VWS V14.00,2013-07-14 09:50:00,
2013-07-14 05:55:00,77.9,74.7,30.07,ENE,70,1.0,1.0,90,0.00,,---,0.00,VWS V14.00,2013-07-14 09:55:00,
2013-07-14 06:00:00,77.9,74.4,30.07,ENE,70,0.0,1.0,89,0.00,,---,0.00,VWS V14.00,2013-07-14 10:00:00,
2013-07-14 06:05:00,78.0,74.5,30.07,SSW,209,0.0,0.0,89,0.00,,---,0.00,VWS V14.00,2013-07-14 10:05:00,
2013-07-14 06:10:00,78.1,74.6,30.07,South,190,0.0,0.0,89,0.00,,---,0.00,VWS V14.00,2013-07-14 10:10:00,
2013-07-14 06:15:00,78.1,74.6,30.08,SSE,150,1.0,2.0,89,0.00,,---,0.00,VWS V14.00,2013-07-14 10:15:00,
2013-07-14 06:20:00,78.0,74.2,30.09,SSE,159,0.0,2.0,88,0.00,,---,0.00,VWS V14.00,2013-07-14 10:20:00,
2013-07-14 06:25:00,77.9,74.4,30.09,SE,132,0.0,0.0,89,0.02,,---,0.02,VWS V14.00,2013-07-14 10:25:00,
2013-07-14 06:30:00,77.6,74.1,30.08,South,171,0.0,0.0,89,0.02,,---,0.02,VWS V14.00,2013-07-14 10:30:00,
2013-07-14 06:35:00,77.3,73.8,30.09,South,171,0.0,0.0,89,0.02,,---,0.02,VWS V14.00,2013-07-14 10:35:00,
2013-07-14 06:40:00,77.1,73.6,30.09,South,172,0.0,0.0,89,0.03,,---,0.03,VWS V14.00,2013-07-14 10:40:00,
2013-07-14 06:45:00,76.8,73.7,30.09,South,171,0.0,0.0,90,0.03,,---,0.03,VWS V14.00,2013-07-14 10:45:00,
2013-07-14 06:50:00,76.6,73.4,30.09,South,172,0.0,0.0,90,0.03,,---,0.03,VWS V14.00,2013-07-14 10:50:00,
2013-07-14 06:55:00,76.5,73.7,30.09,South,172,0.0,0.0,91,0.03,,---,0.03,VWS V14.00,2013-07-14 10:55:00,
2013-07-14 07:00:00,76.4,73.9,30.09,NE,39,0.0,0.0,92,0.03,,---,0.03,VWS V14.00,2013-07-14 11:00:00,
2013-07-14 07:05:00,76.3,73.8,30.09,NE,39,0.0,0.0,92,0.03,,---,0.03,VWS V14.00,2013-07-14 11:05:00,
2013-07-14 07:10:00,76.3,74.1,30.09,NE,39,0.0,0.0,93,0.03,,---,0.03,VWS V14.00,2013-07-14 11:10:00,
2013-07-14 07:15:00,76.4,74.2,30.10,NE,39,0.0,0.0,93,0.03,,---,0.03,VWS V14.00,2013-07-14 11:15:00,
2013-07-14 07:20:00,76.4,74.6,30.10,ENE,63,0.0,0.0,94,0.03,,---,0.03,VWS V14.00,2013-07-14 11:20:00,
2013-07-14 07:25:00,76.4,74.6,30.10,South,182,1.0,4.0,94,0.02,,---,0.03,VWS V14.00,2013-07-14 11:25:00,
2013-07-14 07:30:00,76.0,73.8,30.11,South,190,0.0,3.0,93,0.01,,---,0.03,VWS V14.00,2013-07-14 11:30:00,
2013-07-14 07:35:00,75.6,73.4,30.11,SE,134,0.0,1.0,93,0.03,,---,0.05,VWS V14.00,2013-07-14 11:35:00,
2013-07-14 07:40:00,75.3,73.1,30.10,SSE,150,0.0,0.0,93,0.03,,---,0.06,VWS V14.00,2013-07-14 11:40:00,
2013-07-14 07:45:00,75.1,73.3,30.10,SSE,150,0.0,0.0,94,0.03,,---,0.06,VWS V14.00,2013-07-14 11:45:00,
2013-07-14 07:50:00,75.1,73.3,30.10,SSE,150,0.0,0.0,94,0.03,,---,0.06,VWS V14.00,2013-07-14 11:50:00,
2013-07-14 07:55:00,75.3,73.5,30.10,SSE,150,0.0,0.0,94,0.03,,---,0.06,VWS V14.00,2013-07-14 11:55:00,
2013-07-14 08:00:00,75.5,74.0,30.10,SSE,150,0.0,0.0,95,0.03,,---,0.06,VWS V14.00,2013-07-14 12:00:00,
2013-07-14 08:05:00,75.7,74.2,30.10,SSE,150,0.0,0.0,95,0.04,,---,0.07,VWS V14.00,2013-07-14 12:05:00,
2013-07-14 08:10:00,75.8,74.3,30.10,SSE,150,0.0,1.0,95,0.04,,---,0.07,VWS V14.00,2013-07-14 12:10:00,
2013-07-14 08:15:00,75.9,74.4,30.11,SSE,150,0.0,0.0,95,0.04,,---,0.07,VWS V14.00,2013-07-14 12:15:00,
2013-07-14 08:20:00,76.0,74.8,30.11,SSE,151,0.0,1.0,96,0.04,,---,0.07,VWS V14.00,2013-07-14 12:20:00,
2013-07-14 08:25:00,76.1,74.9,30.11,SSE,159,0.0,0.0,96,0.04,,---,0.07,VWS V14.00,2013-07-14 12:25:00,
2013-07-14 08:30:00,76.3,75.1,30.11,SSE,159,0.0,0.0,96,0.04,,---,0.07,VWS V14.00,2013-07-14 12:30:00,
2013-07-14 08:35:00,76.5,75.3,30.11,SSE,159,0.0,0.0,96,0.02,,---,0.07,VWS V14.00,2013-07-14 12:35:00,
2013-07-14 08:40:00,76.8,75.6,30.11,SE,132,0.0,0.0,96,0.01,,---,0.07,VWS V14.00,2013-07-14 12:40:00,
2013-07-14 08:45:00,77.2,76.3,30.11,NE,40,0.0,0.0,97,0.01,,---,0.07,VWS V14.00,2013-07-14 12:45:00,
2013-07-14 08:50:00,77.6,76.7,30.12,WSW,257,2.0,2.0,97,0.01,,---,0.07,VWS V14.00,2013-07-14 12:50:00,
2013-07-14 08:55:00,77.7,76.5,30.12,NNW,348,2.0,2.0,96,0.01,,---,0.07,VWS V14.00,2013-07-14 12:55:00,
2013-07-14 09:00:00,77.1,75.6,30.12,SSW,211,0.0,1.0,95,0.01,,---,0.07,VWS V14.00,2013-07-14 13:00:00,
2013-07-14 09:05:00,76.9,75.4,30.13,SSW,211,0.0,0.0,95,0.00,,---,0.07,VWS V14.00,2013-07-14 13:05:00,
2013-07-14 09:10:00,76.7,75.2,30.14,SSW,209,0.0,0.0,95,0.00,,---,0.07,VWS V14.00,2013-07-14 13:10:00,
2013-07-14 09:15:00,76.6,75.1,30.14,SSW,211,0.0,1.0,95,0.00,,---,0.07,VWS V14.00,2013-07-14 13:15:00,
2013-07-14 09:20:00,76.6,75.1,30.14,SSW,211,0.0,0.0,95,0.00,,---,0.07,VWS V14.00,2013-07-14 13:20:00,
2013-07-14 09:25:00,76.5,74.7,30.13,SSW,211,0.0,0.0,94,0.00,,---,0.07,VWS V14.00,2013-07-14 13:25:00,
2013-07-14 09:30:00,76.4,74.6,30.13,SSW,211,0.0,0.0,94,0.00,,---,0.07,VWS V14.00,2013-07-14 13:30:00,
2013-07-14 09:35:00,76.5,74.7,30.13,WSW,238,2.0,2.0,94,0.00,,---,0.07,VWS V14.00,2013-07-14 13:35:00,
2013-07-14 09:40:00,76.7,74.8,30.14,WSW,237,0.0,0.0,94,0.00,,---,0.07,VWS V14.00,2013-07-14 13:40:00,
2013-07-14 09:45:00,77.0,75.5,30.13,WSW,237,0.0,0.0,95,0.00,,---,0.07,VWS V14.00,2013-07-14 13:45:00,
2013-07-14 09:50:00,77.3,75.8,30.14,WSW,238,0.0,0.0,95,0.00,,---,0.07,VWS V14.00,2013-07-14 13:50:00,
2013-07-14 09:55:00,77.5,76.0,30.14,WSW,238,0.0,0.0,95,0.00,,---,0.07,VWS V14.00,2013-07-14 13:55:00,
2013-07-14 10:00:00,77.9,76.4,30.14,ESE,107,0.0,1.0,95,0.00,,---,0.07,VWS V14.00,2013-07-14 14:00:00,
2013-07-14 10:05:00,77.9,76.0,30.15,SSW,209,0.0,1.0,94,0.00,,---,0.07,VWS V14.00,2013-07-14 14:05:00,
2013-07-14 10:10:00,77.4,74.6,30.15,WSW,247,0.0,0.0,91,0.00,,---,0.07,VWS V14.00,2013-07-14 14:10:00,
2013-07-14 10:15:00,77.0,73.8,30.15,SSW,208,0.0,0.0,90,0.00,,---,0.07,VWS V14.00,2013-07-14 14:15:00,
2013-07-14 10:20:00,76.8,73.7,30.15,SSW,208,0.0,0.0,90,0.00,,---,0.07,VWS V14.00,2013-07-14 14:20:00,
2013-07-14 10:25:00,76.7,73.9,30.15,SSW,208,0.0,0.0,91,0.00,,---,0.07,VWS V14.00,2013-07-14 14:25:00,
2013-07-14 10:30:00,76.6,73.8,30.15,SSW,208,0.0,0.0,91,0.01,,---,0.08,VWS V14.00,2013-07-14 14:30:00,
2013-07-14 10:35:00,76.6,74.1,30.15,SSW,206,0.0,0.0,92,0.01,,---,0.08,VWS V14.00,2013-07-14 14:35:00,
2013-07-14 10:40:00,76.7,74.5,30.16,SW,219,0.0,0.0,93,0.01,,---,0.08,VWS V14.00,2013-07-14 14:40:00,
2013-07-14 10:45:00,76.9,74.7,30.16,SW,219,0.0,0.0,93,0.01,,---,0.08,VWS V14.00,2013-07-14 14:45:00,
2013-07-14 10:50:00,77.1,75.2,30.16,SW,219,0.0,0.0,94,0.01,,---,0.08,VWS V14.00,2013-07-14 14:50:00,
2013-07-14 10:55:00,77.4,75.9,30.15,SW,219,0.0,0.0,95,0.01,,---,0.08,VWS V14.00,2013-07-14 14:55:00,
2013-07-14 11:00:00,77.8,76.3,30.15,SW,219,0.0,0.0,95,0.01,,---,0.08,VWS V14.00,2013-07-14 15:00:00,
2013-07-14 11:05:00,78.1,76.6,30.15,NE,50,0.0,0.0,95,0.01,,---,0.08,VWS V14.00,2013-07-14 15:05:00,
2013-07-14 11:10:00,78.6,77.4,30.15,NE,50,0.0,0.0,96,0.01,,---,0.08,VWS V14.00,2013-07-14 15:10:00,
2013-07-14 11:15:00,78.9,77.7,30.16,ESE,119,0.0,0.0,96,0.01,,---,0.08,VWS V14.00,2013-07-14 15:15:00,
2013-07-14 11:20:00,79.1,77.6,30.15,East,99,0.0,0.0,95,0.01,,---,0.08,VWS V14.00,2013-07-14 15:20:00,
2013-07-14 11:25:00,79.4,77.8,30.15,SE,140,0.0,0.0,95,0.01,,---,0.08,VWS V14.00,2013-07-14 15:25:00,
2013-07-14 11:30:00,79.6,77.7,30.16,SSW,213,0.0,0.0,94,0.00,,---,0.08,VWS V14.00,2013-07-14 15:30:00,
2013-07-14 11:35:00,79.8,77.6,30.16,SSW,213,0.0,0.0,93,0.00,,---,0.08,VWS V14.00,2013-07-14 15:35:00,
2013-07-14 11:40:00,79.9,76.7,30.16,SSW,195,1.0,1.0,90,0.00,,---,0.08,VWS V14.00,2013-07-14 15:40:00,
2013-07-14 11:45:00,80.2,76.3,30.16,SW,217,3.0,3.0,88,0.00,,---,0.08,VWS V14.00,2013-07-14 15:45:00,
2013-07-14 11:50:00,80.6,76.7,30.16,SSW,211,0.0,0.0,88,0.00,,---,0.08,VWS V14.00,2013-07-14 15:50:00,
2013-07-14 11:55:00,81.1,76.9,30.17,SSW,195,0.0,0.0,87,0.00,,---,0.08,VWS V14.00,2013-07-14 15:55:00,
2013-07-14 12:00:00,81.5,76.9,30.17,South,177,1.0,1.0,86,0.00,,---,0.08,VWS V14.00,2013-07-14 16:00:00,
2013-07-14 12:05:00,81.9,76.9,30.17,NE,48,0.0,0.0,85,0.00,,---,0.08,VWS V14.00,2013-07-14 16:05:00,
2013-07-14 12:10:00,82.3,77.7,30.17,ENE,77,0.0,0.0,86,0.00,,---,0.08,VWS V14.00,2013-07-14 16:10:00,
2013-07-14 12:15:00,82.6,77.6,30.17,ENE,69,3.0,3.0,85,0.00,,---,0.08,VWS V14.00,2013-07-14 16:15:00,
2013-07-14 12:20:00,82.9,77.6,30.17,ENE,57,0.0,0.0,84,0.00,,---,0.08,VWS V14.00,2013-07-14 16:20:00,
2013-07-14 12:25:00,83.1,77.8,30.17,SSE,154,0.0,1.0,84,0.00,,---,0.08,VWS V14.00,2013-07-14 16:25:00,
2013-07-14 12:30:00,83.3,78.0,30.17,NNE,33,0.0,0.0,84,0.00,,---,0.08,VWS V14.00,2013-07-14 16:30:00,
2013-07-14 12:35:00,83.4,77.3,30.17,ENE,64,0.0,0.0,82,0.00,,---,0.08,VWS V14.00,2013-07-14 16:35:00,
2013-07-14 12:40:00,83.4,77.7,30.17,ENE,77,1.0,1.0,83,0.00,,---,0.08,VWS V14.00,2013-07-14 16:40:00,
2013-07-14 12:45:00,83.5,78.2,30.17,East,84,0.0,0.0,84,0.00,,---,0.08,VWS V14.00,2013-07-14 16:45:00,
2013-07-14 12:50:00,83.7,78.0,30.17,ENE,70,1.0,2.0,83,0.00,,---,0.08,VWS V14.00,2013-07-14 16:50:00,
2013-07-14 12:55:00,83.8,78.1,30.17,ENE,61,4.0,8.0,83,0.00,,---,0.08,VWS V14.00,2013-07-14 16:55:00,
2013-07-14 13:00:00,83.8,77.7,30.18,East,98,0.0,0.0,82,0.00,,---,0.08,VWS V14.00,2013-07-14 17:00:00,
2013-07-14 13:05:00,83.8,77.7,30.18,NE,54,0.0,0.0,82,0.00,,---,0.08,VWS V14.00,2013-07-14 17:05:00,
2013-07-14 13:10:00,83.9,77.8,30.17,NE,54,0.0,0.0,82,0.00,,---,0.08,VWS V14.00,2013-07-14 17:10:00,
2013-07-14 13:15:00,83.7,77.6,30.18,ESE,106,0.0,2.0,82,0.00,,---,0.08,VWS V14.00,2013-07-14 17:15:00,
2013-07-14 13:20:00,83.7,78.0,30.17,ENE,58,0.0,1.0,83,0.00,,---,0.08,VWS V14.00,2013-07-14 17:20:00,
2013-07-14 13:25:00,83.8,78.1,30.17,NE,55,5.0,6.0,83,0.00,,---,0.08,VWS V14.00,2013-07-14 17:25:00,
2013-07-14 13:30:00,83.8,77.7,30.17,East,96,0.0,4.0,82,0.00,,---,0.08,VWS V14.00,2013-07-14 17:30:00,
2013-07-14 13:35:00,83.9,78.2,30.17,NE,54,2.0,2.0,83,0.00,,---,0.08,VWS V14.00,2013-07-14 17:35:00,
2013-07-14 13:40:00,83.8,78.1,30.17,NE,43,0.0,2.0,83,0.00,,---,0.08,VWS V14.00,2013-07-14 17:40:00,
2013-07-14 13:45:00,83.8,78.1,30.17,NNE,19,0.0,3.0,83,0.00,,---,0.08,VWS V14.00,2013-07-14 17:45:00,
2013-07-14 13:50:00,83.6,76.0,30.18,SW,231,0.0,0.0,78,0.00,,---,0.08,VWS V14.00,2013-07-14 17:50:00,
2013-07-14 13:55:00,83.2,74.8,30.18,SW,234,0.0,0.0,76,0.00,,---,0.08,VWS V14.00,2013-07-14 17:55:00,
2013-07-14 14:00:00,82.9,74.9,30.18,SW,234,0.0,0.0,77,0.00,,---,0.08,VWS V14.00,2013-07-14 18:00:00,
2013-07-14 14:05:00,82.7,75.2,30.18,SW,234,0.0,0.0,78,0.00,,---,0.08,VWS V14.00,2013-07-14 18:05:00,
2013-07-14 14:10:00,82.5,75.3,30.18,SW,234,0.0,0.0,79,0.00,,---,0.08,VWS V14.00,2013-07-14 18:10:00,
2013-07-14 14:15:00,82.4,75.6,30.18,West,259,0.0,0.0,80,0.00,,---,0.08,VWS V14.00,2013-07-14 18:15:00,
2013-07-14 14:20:00,82.3,75.9,30.18,NE,53,0.0,0.0,81,0.00,,---,0.08,VWS V14.00,2013-07-14 18:20:00,
2013-07-14 14:25:00,82.4,76.4,30.18,NE,53,0.0,0.0,82,0.00,,---,0.08,VWS V14.00,2013-07-14 18:25:00,
2013-07-14 14:30:00,82.9,77.6,30.18,NE,53,0.0,0.0,84,0.00,,---,0.08,VWS V14.00,2013-07-14 18:30:00,
2013-07-14 14:35:00,83.2,77.9,30.17,NE,53,0.0,0.0,84,0.00,,---,0.08,VWS V14.00,2013-07-14 18:35:00,
2013-07-14 14:40:00,83.7,78.0,30.17,ENE,78,0.0,1.0,83,0.00,,---,0.08,VWS V14.00,2013-07-14 18:40:00,
2013-07-14 14:45:00,84.1,78.0,30.17,East,86,0.0,1.0,82,0.00,,---,0.08,VWS V14.00,2013-07-14 18:45:00,
2013-07-14 14:50:00,84.4,78.3,30.17,ENE,72,2.0,2.0,82,0.00,,---,0.08,VWS V14.00,2013-07-14 18:50:00,
2013-07-14 14:55:00,84.4,77.9,30.17,ENE,64,3.0,7.0,81,0.00,,---,0.08,VWS V14.00,2013-07-14 18:55:00,
2013-07-14 15:00:00,84.4,77.9,30.17,ENE,59,0.0,2.0,81,0.00,,---,0.08,VWS V14.00,2013-07-14 19:00:00,
2013-07-14 15:05:00,84.3,77.8,30.17,ENE,69,0.0,6.0,81,0.00,,---,0.08,VWS V14.00,2013-07-14 19:05:00,
2013-07-14 15:10:00,84.2,77.4,30.17,NE,53,0.0,1.0,80,0.00,,---,0.08,VWS V14.00,2013-07-14 19:10:00,
2013-07-14 15:15:00,84.2,77.4,30.16,NE,51,0.0,4.0,80,0.00,,---,0.08,VWS V14.00,2013-07-14 19:15:00,
2013-07-14 15:20:00,84.3,77.5,30.16,ENE,72,2.0,2.0,80,0.00,,---,0.08,VWS V14.00,2013-07-14 19:20:00,
2013-07-14 15:25:00,84.3,77.5,30.16,East,90,4.0,4.0,80,0.00,,---,0.08,VWS V14.00,2013-07-14 19:25:00,
2013-07-14 15:30:00,84.3,77.8,30.16,NE,52,0.0,6.0,81,0.00,,---,0.08,VWS V14.00,2013-07-14 19:30:00,
2013-07-14 15:35:00,84.3,77.8,30.16,ENE,61,0.0,2.0,81,0.00,,---,0.08,VWS V14.00,2013-07-14 19:35:00,
2013-07-14 15:40:00,84.5,77.7,30.16,NE,53,0.0,3.0,80,0.00,,---,0.08,VWS V14.00,2013-07-14 19:40:00,
2013-07-14 15:45:00,84.6,77.0,30.16,NE,49,4.0,8.0,78,0.00,,---,0.08,VWS V14.00,2013-07-14 19:45:00,
2013-07-14 15:50:00,84.7,77.1,30.16,ESE,103,1.0,2.0,78,0.00,,---,0.08,VWS V14.00,2013-07-14 19:50:00,
2013-07-14 15:55:00,84.6,77.0,30.16,NNE,30,0.0,1.0,78,0.00,,---,0.08,VWS V14.00,2013-07-14 19:55:00,
2013-07-14 16:00:00,84.7,77.1,30.16,East,87,3.0,6.0,78,0.00,,---,0.08,VWS V14.00,2013-07-14 20:00:00,
2013-07-14 16:05:00,84.6,77.0,30.16,SSE,148,0.0,7.0,78,0.00,,---,0.08,VWS V14.00,2013-07-14 20:05:00,
2013-07-14 16:10:00,84.6,77.0,30.15,East,85,2.0,7.0,78,0.00,,---,0.08,VWS V14.00,2013-07-14 20:10:00,
2013-07-14 16:15:00,84.7,77.1,30.15,South,188,0.0,2.0,78,0.00,,---,0.08,VWS V14.00,2013-07-14 20:15:00,
2013-07-14 16:20:00,84.9,77.3,30.15,NE,50,0.0,1.0,78,0.00,,---,0.08,VWS V14.00,2013-07-14 20:20:00,
2013-07-14 16:25:00,85.0,77.4,30.15,ENE,63,1.0,5.0,78,0.00,,---,0.08,VWS V14.00,2013-07-14 20:25:00,
2013-07-14 16:30:00,85.1,77.1,30.15,NE,51,0.0,4.0,77,0.00,,---,0.08,VWS V14.00,2013-07-14 20:30:00,
2013-07-14 16:35:00,85.0,77.0,30.16,East,93,2.0,4.0,77,0.00,,---,0.08,VWS V14.00,2013-07-14 20:35:00,
2013-07-14 16:40:00,85.1,77.9,30.16,NE,46,2.0,5.0,79,0.00,,---,0.08,VWS V14.00,2013-07-14 20:40:00,
2013-07-14 16:45:00,85.1,77.9,30.15,NE,49,0.0,1.0,79,0.00,,---,0.08,VWS V14.00,2013-07-14 20:45:00,
2013-07-14 16:50:00,85.1,77.9,30.15,ESE,115,0.0,2.0,79,0.00,,---,0.08,VWS V14.00,2013-07-14 20:50:00,
2013-07-14 16:55:00,84.9,77.7,30.15,ENE,78,1.0,3.0,79,0.00,,---,0.08,VWS V14.00,2013-07-14 20:55:00,
2013-07-14 17:00:00,84.8,77.9,30.15,NE,55,0.0,1.0,80,0.00,,---,0.08,VWS V14.00,2013-07-14 21:00:00,
2013-07-14 17:05:00,84.6,78.1,30.15,ENE,71,1.0,2.0,81,0.00,,---,0.08,VWS V14.00,2013-07-14 21:05:00,
2013-07-14 17:10:00,84.5,78.0,30.15,East,80,0.0,1.0,81,0.00,,---,0.08,VWS V14.00,2013-07-14 21:10:00,
2013-07-14 17:15:00,84.5,78.0,30.15,ENE,61,0.0,4.0,81,0.00,,---,0.08,VWS V14.00,2013-07-14 21:15:00,
2013-07-14 17:20:00,84.5,78.0,30.15,NE,50,2.0,2.0,81,0.00,,---,0.08,VWS V14.00,2013-07-14 21:20:00,
2013-07-14 17:25:00,84.3,77.5,30.15,ENE,65,0.0,2.0,80,0.00,,---,0.08,VWS V14.00,2013-07-14 21:25:00,
2013-07-14 17:30:00,84.3,77.8,30.15,ENE,60,0.0,2.0,81,0.00,,---,0.08,VWS V14.00,2013-07-14 21:30:00,
2013-07-14 17:35:00,84.2,78.1,30.15,ENE,78,0.0,1.0,82,0.00,,---,0.08,VWS V14.00,2013-07-14 21:35:00,
2013-07-14 17:40:00,84.3,78.2,30.15,ENE,72,0.0,0.0,82,0.00,,---,0.08,VWS V14.00,2013-07-14 21:40:00,
2013-07-14 17:45:00,84.3,78.2,30.15,East,91,0.0,2.0,82,0.00,,---,0.08,VWS V14.00,2013-07-14 21:45:00,
2013-07-14 17:50:00,84.1,77.6,30.14,ESE,115,1.0,4.0,81,0.00,,---,0.08,VWS V14.00,2013-07-14 21:50:00,
2013-07-14 17:55:00,84.0,77.5,30.15,NE,44,1.0,1.0,81,0.00,,---,0.08,VWS V14.00,2013-07-14 21:55:00,
2013-07-14 18:00:00,83.8,77.7,30.15,ENE,65,0.0,5.0,82,0.00,,---,0.08,VWS V14.00,2013-07-14 22:00:00,
2013-07-14 18:05:00,83.7,77.6,30.15,NE,51,0.0,1.0,82,0.00,,---,0.08,VWS V14.00,2013-07-14 22:05:00,
2013-07-14 18:10:00,83.7,77.6,30.15,NE,44,0.0,1.0,82,0.00,,---,0.08,VWS V14.00,2013-07-14 22:10:00,
2013-07-14 18:15:00,83.7,77.6,30.15,ESE,118,1.0,2.0,82,0.00,,---,0.08,VWS V14.00,2013-07-14 22:15:00,
2013-07-14 18:20:00,83.6,77.2,30.15,ENE,65,0.0,2.0,81,0.00,,---,0.08,VWS V14.00,2013-07-14 22:20:00,
2013-07-14 18:25:00,83.5,77.1,30.15,NNE,18,1.0,1.0,81,0.00,,---,0.08,VWS V14.00,2013-07-14 22:25:00,
2013-07-14 18:30:00,83.4,76.6,30.15,NE,41,2.0,3.0,80,0.00,,---,0.08,VWS V14.00,2013-07-14 22:30:00,
2013-07-14 18:35:00,83.3,76.1,30.15,NE,46,0.0,5.0,79,0.00,,---,0.08,VWS V14.00,2013-07-14 22:35:00,
2013-07-14 18:40:00,83.3,76.1,30.15,ENE,78,0.0,1.0,79,0.00,,---,0.08,VWS V14.00,2013-07-14 22:40:00,
2013-07-14 18:45:00,83.3,76.5,30.15,ENE,57,0.0,3.0,80,0.00,,---,0.08,VWS V14.00,2013-07-14 22:45:00,
2013-07-14 18:50:00,83.3,76.9,30.15,ENE,63,1.0,5.0,81,0.00,,---,0.08,VWS V14.00,2013-07-14 22:50:00,
2013-07-14 18:55:00,83.3,76.9,30.15,NE,36,2.0,2.0,81,0.00,,---,0.08,VWS V14.00,2013-07-14 22:55:00,
2013-07-14 19:00:00,83.1,76.7,30.15,ENE,74,0.0,6.0,81,0.00,,---,0.08,VWS V14.00,2013-07-14 23:00:00,
2013-07-14 19:05:00,83.1,76.7,30.15,ENE,69,0.0,1.0,81,0.00,,---,0.08,VWS V14.00,2013-07-14 23:05:00,
2013-07-14 19:10:00,83.0,76.6,30.14,NE,44,3.0,3.0,81,0.00,,---,0.08,VWS V14.00,2013-07-14 23:10:00,
2013-07-14 19:15:00,82.9,76.5,30.15,ENE,58,2.0,3.0,81,0.00,,---,0.08,VWS V14.00,2013-07-14 23:15:00,
2013-07-14 19:20:00,82.7,76.7,30.15,ENE,65,0.0,5.0,82,0.00,,---,0.08,VWS V14.00,2013-07-14 23:20:00,
2013-07-14 19:25:00,82.6,76.6,30.15,NE,53,0.0,3.0,82,0.00,,---,0.08,VWS V14.00,2013-07-14 23:25:00,
2013-07-14 19:30:00,82.4,76.7,30.15,ENE,74,0.0,1.0,83,0.00,,---,0.08,VWS V14.00,2013-07-14 23:30:00,
2013-07-14 19:35:00,82.3,76.6,30.15,ENE,74,0.0,1.0,83,0.00,,---,0.08,VWS V14.00,2013-07-14 23:35:00,
2013-07-14 19:40:00,82.1,76.4,30.15,ENE,71,0.0,5.0,83,0.00,,---,0.08,VWS V14.00,2013-07-14 23:40:00,
2013-07-14 19:45:00,82.0,76.3,30.16,ENE,62,0.0,0.0,83,0.00,,---,0.08,VWS V14.00,2013-07-14 23:45:00,
2013-07-14 19:50:00,81.8,76.1,30.16,ENE,71,2.0,5.0,83,0.00,,---,0.08,VWS V14.00,2013-07-14 23:50:00,
2013-07-14 19:55:00,81.6,75.9,30.16,NE,52,4.0,6.0,83,0.00,,---,0.08,VWS V14.00,2013-07-14 23:55:00,
2013-07-14 20:00:00,81.5,75.8,30.16,NE,53,1.0,7.0,83,0.00,,---,0.08,VWS V14.00,2013-07-15 00:00:00,
2013-07-14 20:05:00,81.3,76.0,30.16,NE,48,1.0,5.0,84,0.00,,---,0.08,VWS V14.00,2013-07-15 00:05:00,
2013-07-14 20:10:00,81.2,75.9,30.16,ENE,58,0.0,0.0,84,0.00,,---,0.08,VWS V14.00,2013-07-15 00:10:00,
2013-07-14 20:15:00,81.1,75.8,30.16,NE,52,0.0,4.0,84,0.00,,---,0.08,VWS V14.00,2013-07-15 00:15:00,
2013-07-14 20:20:00,81.0,76.1,30.16,East,90,2.0,5.0,85,0.00,,---,0.08,VWS V14.00,2013-07-15 00:20:00,
2013-07-14 20:25:00,80.9,76.0,30.16,NE,34,0.0,1.0,85,0.00,,---,0.08,VWS V14.00,2013-07-15 00:25:00,
2013-07-14 20:29:00,80.9,76.3,30.16,NE,48,1.0,3.0,86,0.00,,---,0.08,VWS V14.00,2013-07-15 00:29:00,
2013-07-14 20:34:00,80.7,76.1,30.16,NE,53,2.0,2.0,86,0.00,,---,0.08,VWS V14.00,2013-07-15 00:34:00,
2013-07-14 20:39:00,80.7,76.1,30.16,NE,50,6.0,6.0,86,0.00,,---,0.08,VWS V14.00,2013-07-15 00:39:00,
2013-07-14 20:44:00,80.6,76.0,30.16,NE,40,0.0,1.0,86,0.00,,---,0.08,VWS V14.00,2013-07-15 00:44:00,
2013-07-14 20:49:00,80.6,76.4,30.17,NE,44,0.0,0.0,87,0.00,,---,0.08,VWS V14.00,2013-07-15 00:49:00,
2013-07-14 20:54:00,80.5,76.3,30.17,NE,47,1.0,2.0,87,0.00,,---,0.08,VWS V14.00,2013-07-15 00:54:00,
2013-07-14 20:59:00,80.4,76.2,30.17,NE,54,0.0,0.0,87,0.00,,---,0.08,VWS V14.00,2013-07-15 00:59:00,
2013-07-14 21:04:00,80.4,76.2,30.17,NE,40,0.0,1.0,87,0.00,,---,0.08,VWS V14.00,2013-07-15 01:04:00,
2013-07-14 21:09:00,80.3,76.1,30.17,NE,47,1.0,3.0,87,0.00,,---,0.08,VWS V14.00,2013-07-15 01:09:00,
2013-07-14 21:14:00,80.3,76.1,30.17,NE,49,2.0,7.0,87,0.00,,---,0.08,VWS V14.00,2013-07-15 01:14:00,
2013-07-14 21:19:00,80.2,76.0,30.17,NE,43,3.0,4.0,87,0.00,,---,0.08,VWS V14.00,2013-07-15 01:19:00,
2013-07-14 21:24:00,80.1,75.9,30.17,ENE,66,0.0,2.0,87,0.00,,---,0.08,VWS V14.00,2013-07-15 01:24:00,
2013-07-14 21:29:00,80.1,75.9,30.17,NE,53,1.0,4.0,87,0.00,,---,0.08,VWS V14.00,2013-07-15 01:29:00,
2013-07-14 21:34:00,80.1,76.2,30.18,NE,50,0.0,0.0,88,0.00,,---,0.08,VWS V14.00,2013-07-15 01:34:00,
2013-07-14 21:39:00,80.0,76.1,30.18,NE,55,0.0,4.0,88,0.00,,---,0.08,VWS V14.00,2013-07-15 01:39:00,
2013-07-14 21:44:00,80.0,76.1,30.18,NE,53,0.0,2.0,88,0.00,,---,0.08,VWS V14.00,2013-07-15 01:44:00,
2013-07-14 21:49:00,80.0,76.1,30.19,ENE,69,2.0,3.0,88,0.00,,---,0.08,VWS V14.00,2013-07-15 01:49:00,
2013-07-14 21:54:00,79.9,76.0,30.19,ENE,58,0.0,5.0,88,0.00,,---,0.08,VWS V14.00,2013-07-15 01:54:00,
2013-07-14 21:59:00,79.9,76.0,30.19,NE,53,0.0,0.0,88,0.00,,---,0.08,VWS V14.00,2013-07-15 01:59:00,
2013-07-14 22:04:00,79.9,76.4,30.19,North,5,4.0,7.0,89,0.00,,---,0.08,VWS V14.00,2013-07-15 02:04:00,
2013-07-14 22:09:00,79.9,76.0,30.19,NE,51,1.0,3.0,88,0.00,,---,0.08,VWS V14.00,2013-07-15 02:09:00,
2013-07-14 22:14:00,79.8,76.3,30.19,NE,51,0.0,0.0,89,0.00,,---,0.08,VWS V14.00,2013-07-15 02:14:00,
2013-07-14 22:19:00,79.7,76.2,30.19,NE,40,0.0,0.0,89,0.00,,---,0.08,VWS V14.00,2013-07-15 02:19:00,
2013-07-14 22:24:00,79.7,76.2,30.19,ENE,65,0.0,5.0,89,0.00,,---,0.08,VWS V14.00,2013-07-15 02:24:00,
2013-07-14 22:29:00,79.6,76.1,30.19,ENE,68,3.0,3.0,89,0.00,,---,0.08,VWS V14.00,2013-07-15 02:29:00,
2013-07-14 22:34:00,79.6,76.1,30.19,NE,39,1.0,1.0,89,0.00,,---,0.08,VWS V14.00,2013-07-15 02:34:00,
2013-07-14 22:39:00,79.6,76.1,30.19,NNE,13,0.0,1.0,89,0.00,,---,0.08,VWS V14.00,2013-07-15 02:39:00,
2013-07-14 22:44:00,79.6,76.1,30.20,NE,53,3.0,3.0,89,0.00,,---,0.08,VWS V14.00,2013-07-15 02:44:00,
2013-07-14 22:49:00,79.6,76.1,30.20,NE,55,0.0,0.0,89,0.00,,---,0.08,VWS V14.00,2013-07-15 02:49:00,
2013-07-14 22:54:00,79.5,76.0,30.19,NE,55,0.0,0.0,89,0.00,,---,0.08,VWS V14.00,2013-07-15 02:54:00,
2013-07-14 22:59:00,79.5,76.0,30.19,NE,50,0.0,1.0,89,0.00,,---,0.08,VWS V14.00,2013-07-15 02:59:00,
2013-07-14 23:04:00,79.4,75.9,30.20,North,5,0.0,1.0,89,0.00,,---,0.08,VWS V14.00,2013-07-15 03:04:00,
2013-07-14 23:09:00,79.4,75.5,30.20,ENE,61,0.0,0.0,88,0.00,,---,0.08,VWS V14.00,2013-07-15 03:09:00,
2013-07-14 23:14:00,79.4,75.9,30.19,NE,51,0.0,1.0,89,0.00,,---,0.08,VWS V14.00,2013-07-15 03:14:00,
2013-07-14 23:19:00,79.4,75.9,30.19,ENE,70,0.0,2.0,89,0.00,,---,0.08,VWS V14.00,2013-07-15 03:19:00,
2013-07-14 23:24:00,79.4,75.9,30.19,ENE,61,0.0,0.0,89,0.00,,---,0.08,VWS V14.00,2013-07-15 03:24:00,
2013-07-14 23:29:00,79.4,75.9,30.19,NE,55,0.0,1.0,89,0.00,,---,0.08,VWS V14.00,2013-07-15 03:29:00,
2013-07-14 23:34:00,79.4,75.9,30.19,NE,56,0.0,3.0,89,0.00,,---,0.08,VWS V14.00,2013-07-15 03:34:00,
2013-07-14 23:39:00,79.3,75.8,30.19,NE,36,0.0,0.0,89,0.00,,---,0.08,VWS V14.00,2013-07-15 03:39:00,
2013-07-14 23:44:00,79.3,75.8,30.19,ENE,64,0.0,1.0,89,0.00,,---,0.08,VWS V14.00,2013-07-15 03:44:00,
2013-07-14 23:49:00,79.3,75.8,30.19,ENE,61,0.0,0.0,89,0.00,,---,0.08,VWS V14.00,2013-07-15 03:49:00,
2013-07-14 23:54:00,79.2,75.7,30.19,ENE,61,0.0,1.0,89,0.00,,---,0.00,VWS V14.00,2013-07-15 03:54:00,
2013-07-14 23:59:00,79.2,75.7,30.18,NE,54,0.0,2.0,89,0.00,,---,0.00,VWS V14.00,2013-07-15 03:59:00,